CZ-3C DEB, 39349

Orbit data source: Space-Track

CZ-3C DEB, 39349 is space debris in HEO originally from a launch on Sun, 31 Oct 2010 UTC launched from the Xichang Space Center, China (XSC). Debris objects in space refer to the collection of defunct objects orbiting the Earth. Examples of debris include non-operational satellites, rocket bodies, and fragments generated from explosions, collisions, or faulty payload assembly.

Loading next visibility...
Identifier
39349, 2010-057P
Orbit
HEO
Country
Flag of CNCN / PRC
Related business
Manufacturer
CALT
Mission
Spacecraft
Bus & Motor
Unknown
Mass
Unknown
Launch date (UTC)
2010-10-31 (15 years ago)
Launch vehicle
Unknown
Launch site
Xichang Space Center, China (XSC)
Object type
Payload
Rocket body
Debris
Shape & HBR
Unknown shape, 0.4 m
Radar Cross Section
Medium (>0.1 m² and <1 m²)

Expand to show TLE details & history
Last TLE update: 9 hours ago

TLE from 9 hours ago
0 CZ-3C DEB
1 39349U 10057P   26105.67618573 -.00000154  00000-0 -12501-2 0  9991
2 39349  20.8248  10.6569 7141562 313.2490 301.4798  2.30246842 96322
Epoch: 2026-04-15T16:13Z
TLE epoch observation values (Epoch: 2026-04-15T16:13:42.447Z)
Latitude
2.90334°
Longitude
95.72933°
Altitude
20,571.446 km
Speed
3.623 km/s
True Right ascension
12h 11m 57s
True Declination
2° 53' 55"
Sunlit
Object was in daylight at epoch
Visualization orbit readout
Latitude
Unknown
Longitude
Unknown
Altitude
Unknown
Speed
Unknown
Apparent Right ascension
Unknown
Apparent Declination
Unknown
Sunlit
N/A
Visualization observer readout
Local Sidereal Time
07:31:15
Azimuth
Unknown
Elevation
Unknown
Doppler factor
Unknown
Orbital elements
Apogee altitude
35,155.541 km
Perigee altitude
547.804 km
Semi-major axis
24,229.809 km
Eccentricity
0.71416
Inclination
20.8248°
RAAN
10.6569°
Arg. of periapsis
313.249°
True anomaly
218.49148°
Mean anomaly
301.4798°
Eccentric anomaly
261.05888°
Mean motion
0.57546 °/min
Orbital period
625.58 mins
BSTAR
-0.0012501
Loading maneuver chart data...
Computing Atmospheric mass density...
Loading historical data...
Loading historical data...
Loading historical data...
Loading historical data...
Loading historical data...
Loading historical data...
Loading historical data...

Documentation

Showing up to 5 results
|